Weather History for Price, UT

Change the Weather History Date:

Thursday, October 3, 2013

  Actual Average Record
Temperature  
Mean Temperature 47 °F -  
Max Temperature 59 °F 68 °F 84 °F (1979)
Min Temperature 34 °F 41 °F 31 °F (1971)
Degree Days  
Heating Degree Days 18    
Moisture  
Dew Point 26 °F    
Average Humidity 40    
Maximum Humidity 54    
Minimum Humidity 32    
Precipitation  
Precipitation 0.00 in - - ()
Sea Level Pressure  
Sea Level Pressure 29.76 in    
Wind  
Wind Speed 8 mph (North)    
Max Wind Speed 23 mph    
Max Gust Speed 31 mph    
Visibility 10 miles    
Events      
Averages and records for this station are not official NWS values.
T = Trace of Precipitation, MM = Missing Value Source: NWS Daily Summary

Daily Weather History Graph

Daily Weather History Graph

Search for Another Location

Airport:

Trip Planner

Search our weather history database for the weather conditions in past years. The results will help you decide how hot, cold, wet, or windy it might be!

Date:

Astronomy

Oct. 03, 2013 Rise Set
Actual Time 7:21 AM MDT 7:01 PM MDT
Civil Twilight 6:54 AM MDT 7:28 PM MDT
Nautical Twilight 6:23 AM MDT 7:59 PM MDT
Astronomical Twilight 5:51 AM MDT 8:31 PM MDT
Moon 5:58 AM MDT (10/3) 6:12 PM MDT (10/3)
Length of Visible Light 12h 34m
Length of Day
11h 40m
Waning Crescent, 2% of the Moon is Illuminated
Oct 3
Waning Crescent
Oct 4
New
Oct 11
First Quarter
Oct 18
Full
Oct 26
Last Quarter

Hourly Weather History & Observations

Time (MDT) Temp. Windchill Dew Point Humidity Pressure Visibility Wind Dir Wind Speed Gust Speed Precip Events Conditions
12:53 AM 57.9 °F - 28.9 °F 33% 29.68 in 10.0 mi SE 5.8 mph - N/A   Clear
1:53 AM 55.9 °F - 28.9 °F 36% 29.69 in 10.0 mi East 4.6 mph - N/A   Mostly Cloudy
2:53 AM 55.9 °F - 28.9 °F 36% 29.67 in 10.0 mi East 3.5 mph - N/A   Overcast
3:53 AM 55.9 °F - 30.0 °F 37% 29.66 in 10.0 mi East 4.6 mph - N/A   Overcast
4:53 AM 54.0 °F - 30.0 °F 40% 29.65 in 10.0 mi ENE 9.2 mph - N/A   Mostly Cloudy
5:53 AM 54.0 °F - 30.0 °F 40% 29.64 in 10.0 mi ESE 4.6 mph - N/A   Scattered Clouds
6:53 AM 54.0 °F - 30.9 °F 41% 29.64 in 10.0 mi Calm Calm - N/A   Overcast
7:53 AM 53.1 °F - 32.0 °F 45% 29.65 in 10.0 mi North 3.5 mph - N/A   Mostly Cloudy
8:53 AM 55.9 °F - 33.1 °F 42% 29.65 in 10.0 mi Calm Calm - N/A   Overcast
10:53 AM 55.9 °F - 33.1 °F 42% 29.68 in 10.0 mi NW 8.1 mph 16.1 mph N/A   Overcast
11:53 AM 53.1 °F - 32.0 °F 45% 29.69 in 10.0 mi NW 16.1 mph 25.3 mph 0.00 in   Overcast
12:53 PM 51.1 °F - 28.0 °F 41% 29.70 in 10.0 mi WNW 17.3 mph 31.1 mph N/A   Overcast
1:53 PM 48.9 °F - 27.0 °F 43% 29.72 in 10.0 mi NNW 12.7 mph 26.5 mph 0.00 in   Overcast
2:53 PM 46.9 °F - 25.0 °F 42% 29.77 in 10.0 mi NNW 19.6 mph 28.8 mph N/A   Overcast
3:53 PM 46.0 °F 40.2 °F 24.1 °F 42% 29.79 in 10.0 mi NNW 12.7 mph - N/A   Overcast
4:53 PM 46.9 °F - 18.0 °F 32% 29.81 in 10.0 mi NW 23.0 mph 29.9 mph N/A   Overcast
5:53 PM 45.0 °F 37.4 °F 21.9 °F 40% 29.83 in 10.0 mi NNW 18.4 mph 25.3 mph N/A   Overcast
6:53 PM 44.1 °F 37.4 °F 17.1 °F 34% 29.87 in 10.0 mi NNW 13.8 mph 23.0 mph N/A   Scattered Clouds
7:53 PM 42.1 °F 35.2 °F 17.1 °F 37% 29.93 in 10.0 mi NNW 12.7 mph - N/A   Partly Cloudy
8:53 PM 41.0 °F 33.5 °F 16.0 °F 36% 29.95 in 10.0 mi NNW 13.8 mph 21.9 mph N/A   Clear
10:53 PM 37.0 °F 34.5 °F 18.0 °F 46% 30.01 in 10.0 mi WNW 3.5 mph - N/A   Clear
11:53 PM 34.0 °F 31.0 °F 19.0 °F 54% 30.05 in 10.0 mi Variable 3.5 mph - N/A   Clear